Hourly Weather Klekhivka

Today, 27 July, Tuesday

Time Temperature Precipitation Wind Pressure Humidity
00:00 +20°C° 0 mm 3 mps 747 mmHg 64%
01:00 +20°C° 0 mm 3 mps 747 mmHg 65%
02:00 +19°C° 0 mm 3 mps 747 mmHg 67%
03:00 +19°C° 0 mm 3 mps 747 mmHg 67%
04:00 +19°C° 0 mm 2 mps 747 mmHg 68%
05:00 +19°C° 0 mm 2 mps 747 mmHg 68%
06:00 +20°C° 0 mm 3 mps 747 mmHg 65%
07:00 +22°C° 0 mm 3 mps 746 mmHg 62%
08:00 +25°C° 0 mm 3 mps 746 mmHg 58%
09:00 +27°C° 0 mm 4 mps 746 mmHg 54%
10:00 +28°C° 0 mm 4 mps 746 mmHg 51%
11:00 +30°C° 0 mm 5 mps 746 mmHg 47%
12:00 +30°C° 0 mm 5 mps 746 mmHg 45%
13:00 +32°C° 0 mm 4 mps 746 mmHg 43%
14:00 +32°C° 0 mm 4 mps 746 mmHg 42%
15:00 +32°C° 0 mm 4 mps 745 mmHg 45%
16:00 +30°C° 0 mm 3 mps 745 mmHg 48%
17:00 +30°C° 0 mm 3 mps 745 mmHg 50%
18:00 +29°C° 0 mm 3 mps 745 mmHg 55%
19:00 +27°C° 0 mm 3 mps 745 mmHg 60%
20:00 +25°C° 0 mm 3 mps 744 mmHg 64%
21:00 +25°C° 0 mm 3 mps 744 mmHg 63%
22:00 +25°C° 0 mm 3 mps 744 mmHg 62%
23:00 +24°C° 0 mm 3 mps 744 mmHg 60%

Tomorrow, 28 July, Wednesday

Time Temperature Precipitation Wind Pressure Humidity
00:00 +22°C° 0.1 mm 3 mps 744 mmHg 66%
01:00 +21°C° 0.1 mm 2 mps 744 mmHg 71%
02:00 +21°C° 0.1 mm 2 mps 743 mmHg 77%
03:00 +20°C° 0.2 mm 2 mps 743 mmHg 80%
04:00 +21°C° 0.2 mm 1 mps 743 mmHg 83%
05:00 +21°C° 0.2 mm 1 mps 743 mmHg 86%
06:00 +22°C° 0.2 mm 1 mps 743 mmHg 82%
07:00 +24°C° 0.2 mm 1 mps 743 mmHg 77%
08:00 +25°C° 0.2 mm 1 mps 743 mmHg 72%
09:00 +27°C° 0 mm 1 mps 743 mmHg 66%
10:00 +28°C° 0 mm 2 mps 743 mmHg 61%
11:00 +30°C° 0 mm 2 mps 743 mmHg 55%
12:00 +31°C° 0 mm 3 mps 742 mmHg 54%
13:00 +31°C° 0 mm 3 mps 742 mmHg 52%
14:00 +33°C° 0 mm 3 mps 742 mmHg 50%
15:00 +33°C° 0 mm 3 mps 742 mmHg 51%
16:00 +33°C° 0 mm 3 mps 742 mmHg 52%
17:00 +33°C° 0 mm 3 mps 741 mmHg 53%
18:00 +30°C° 0 mm 2 mps 741 mmHg 58%
19:00 +28°C° 0 mm 2 mps 741 mmHg 64%
20:00 +26°C° 0 mm 1 mps 741 mmHg 69%
21:00 +25°C° 0.5 mm 1 mps 741 mmHg 72%
22:00 +24°C° 0.5 mm 1 mps 741 mmHg 76%
23:00 +23°C° 0.5 mm 1 mps 742 mmHg 79%

Day after tomorrow, 29 July, Thursday

Time Temperature Precipitation Wind Pressure Humidity
00:00 +23°C° 0.7 mm 1 mps 741 mmHg 81%
01:00 +23°C° 0.7 mm 1 mps 741 mmHg 83%
02:00 +22°C° 0.7 mm 1 mps 741 mmHg 85%
03:00 +22°C° 0 mm 1 mps 740 mmHg 86%
04:00 +22°C° 0 mm 1 mps 740 mmHg 87%
05:00 +20°C° 0 mm 2 mps 740 mmHg 87%
06:00 +23°C° 0 mm 2 mps 740 mmHg 82%
07:00 +25°C° 0 mm 2 mps 740 mmHg 76%
08:00 +26°C° 0 mm 3 mps 740 mmHg 71%
09:00 +28°C° 0 mm 3 mps 740 mmHg 65%
10:00 +29°C° 0 mm 4 mps 740 mmHg 59%
11:00 +30°C° 0 mm 4 mps 740 mmHg 53%
12:00 +32°C° 0 mm 5 mps 740 mmHg 52%
13:00 +32°C° 0 mm 5 mps 740 mmHg 51%
14:00 +33°C° 0 mm 6 mps 740 mmHg 50%
15:00 +32°C° 0 mm 6 mps 740 mmHg 52%
16:00 +32°C° 0 mm 5 mps 740 mmHg 54%
17:00 +30°C° 0 mm 5 mps 739 mmHg 57%
18:00 +29°C° 0 mm 5 mps 740 mmHg 63%
19:00 +27°C° 0 mm 4 mps 740 mmHg 69%
20:00 +25°C° 0 mm 3 mps 740 mmHg 75%
21:00 +24°C° 0 mm 3 mps 740 mmHg 79%
22:00 +22°C° 0 mm 3 mps 740 mmHg 82%
23:00 +21°C° 0 mm 3 mps 741 mmHg 86%

30 July, Friday

Time Temperature Precipitation Wind Pressure Humidity
00:00 +21°C° 0 mm 3 mps 741 mmHg 88%
01:00 +20°C° 0 mm 3 mps 741 mmHg 90%
02:00 +20°C° 0 mm 3 mps 741 mmHg 93%
03:00 +19°C° 0 mm 2 mps 741 mmHg 93%
04:00 +19°C° 0 mm 2 mps 741 mmHg 93%
05:00 +19°C° 0 mm 2 mps 741 mmHg 93%
06:00 +20°C° 0 mm 2 mps 742 mmHg 85%
07:00 +23°C° 0 mm 2 mps 742 mmHg 77%
08:00 +25°C° 0 mm 3 mps 742 mmHg 69%
09:00 +26°C° 0 mm 2 mps 742 mmHg 62%
10:00 +27°C° 0 mm 2 mps 742 mmHg 55%
11:00 +29°C° 0 mm 2 mps 742 mmHg 48%
12:00 +29°C° 0 mm 2 mps 742 mmHg 45%
13:00 +30°C° 0 mm 2 mps 742 mmHg 42%
14:00 +31°C° 0 mm 2 mps 741 mmHg 39%
15:00 +31°C° 0 mm 2 mps 741 mmHg 41%
16:00 +30°C° 0 mm 2 mps 741 mmHg 42%
17:00 +30°C° 0 mm 2 mps 741 mmHg 44%
18:00 +28°C° 0 mm 2 mps 741 mmHg 49%
19:00 +26°C° 0 mm 2 mps 741 mmHg 54%
20:00 +25°C° 0 mm 2 mps 740 mmHg 59%
21:00 +24°C° 0 mm 2 mps 740 mmHg 60%
22:00 +23°C° 0 mm 1 mps 740 mmHg 60%
23:00 +23°C° 0 mm 1 mps 740 mmHg 61%

31 July, Saturday

Time Temperature Precipitation Wind Pressure Humidity
00:00 +21°C° 0 mm 2 mps 740 mmHg 63%
01:00 +21°C° 0 mm 2 mps 740 mmHg 64%
02:00 +21°C° 0 mm 2 mps 740 mmHg 65%
03:00 +20°C° 0 mm 2 mps 740 mmHg 68%
04:00 +20°C° 0 mm 2 mps 740 mmHg 70%
05:00 +20°C° 0 mm 2 mps 739 mmHg 72%
06:00 +22°C° 0 mm 3 mps 740 mmHg 68%
07:00 +25°C° 0 mm 3 mps 740 mmHg 65%
08:00 +27°C° 0 mm 3 mps 740 mmHg 61%
09:00 +28°C° 0 mm 4 mps 739 mmHg 57%
10:00 +30°C° 0 mm 4 mps 739 mmHg 52%
11:00 +32°C° 0 mm 4 mps 739 mmHg 48%
12:00 +33°C° 0 mm 5 mps 739 mmHg 47%
13:00 +34°C° 0 mm 5 mps 738 mmHg 45%
14:00 +34°C° 0 mm 5 mps 738 mmHg 44%
15:00 +34°C° 0 mm 5 mps 737 mmHg 46%
16:00 +34°C° 0 mm 5 mps 737 mmHg 48%
17:00 +34°C° 0 mm 5 mps 736 mmHg 50%
18:00 +30°C° 1.2 mm 5 mps 736 mmHg 62%
19:00 +27°C° 1.2 mm 5 mps 736 mmHg 73%
20:00 +23°C° 1.2 mm 5 mps 736 mmHg 84%
21:00 +22°C° 3 mm 4 mps 737 mmHg 87%
22:00 +21°C° 3 mm 4 mps 737 mmHg 91%
23:00 +20°C° 3 mm 3 mps 738 mmHg 95%

1 August, Sunday

Time Temperature Precipitation Wind Pressure Humidity
00:00 +20°C° 0 mm 3 mps 738 mmHg 95%
01:00 +19°C° 0 mm 3 mps 738 mmHg 96%
02:00 +19°C° 0 mm 3 mps 738 mmHg 97%
03:00 +19°C° 0 mm 3 mps 738 mmHg 96%
04:00 +18°C° 0 mm 2 mps 739 mmHg 95%
05:00 +18°C° 0 mm 2 mps 739 mmHg 95%
06:00 +20°C° 0 mm 2 mps 739 mmHg 87%
07:00 +21°C° 0 mm 2 mps 739 mmHg 80%
08:00 +23°C° 0 mm 2 mps 740 mmHg 72%
09:00 +25°C° 0 mm 2 mps 740 mmHg 67%
10:00 +27°C° 0 mm 2 mps 740 mmHg 61%
11:00 +28°C° 0 mm 2 mps 740 mmHg 55%
12:00 +29°C° 0 mm 3 mps 740 mmHg 53%
13:00 +29°C° 0 mm 3 mps 740 mmHg 52%
14:00 +30°C° 0 mm 3 mps 740 mmHg 50%
15:00 +30°C° 0 mm 3 mps 740 mmHg 51%
16:00 +30°C° 0 mm 2 mps 740 mmHg 52%
17:00 +30°C° 0 mm 2 mps 740 mmHg 53%
18:00 +28°C° 0.1 mm 1 mps 740 mmHg 60%
19:00 +26°C° 0.1 mm 1 mps 739 mmHg 66%
20:00 +25°C° 0.1 mm 1 mps 739 mmHg 72%
21:00 +24°C° 0.7 mm 1 mps 739 mmHg 76%
22:00 +23°C° 0.7 mm 1 mps 738 mmHg 80%
23:00 +22°C° 0.7 mm 1 mps 738 mmHg 84%
Show more